Weather History for Hazlehurst, GA

Change the Weather History Date:

Thursday, November 14, 2013

  Actual Average Record
Temperature  
Mean Temperature 48 °F -  
Max Temperature 95 °F 69 °F 95 °F (2013)
Min Temperature 32 °F 44 °F 32 °F (2013)
Degree Days  
Heating Degree Days 17    
Moisture  
Dew Point 36 °F    
Average Humidity 68    
Maximum Humidity 89    
Minimum Humidity 48    
Precipitation  
Precipitation 0.00 in - - ()
Sea Level Pressure  
Sea Level Pressure 30.39 in    
Wind  
Wind Speed 5 mph (ENE)    
Max Wind Speed 9 mph    
Max Gust Speed -    
Visibility 10 miles    
Events      
Averages and records for this station are not official NWS values.
T = Trace of Precipitation, MM = Missing Value Source: NWS Daily Summary

Daily Weather History Graph

Daily Weather History Graph

Search for Another Location

Airport:

Trip Planner

Search our weather history database for the weather conditions in past years. The results will help you decide how hot, cold, wet, or windy it might be!

Date:

Astronomy

Nov. 14, 2013 Rise Set
Actual Time 6:58 AM EST 5:31 PM EST
Civil Twilight 6:32 AM EST 5:57 PM EST
Nautical Twilight 6:03 AM EST 6:26 PM EST
Astronomical Twilight 5:34 AM EST 6:55 PM EST
Moon 3:43 PM EST (11/14) 4:02 AM EST (11/14)
Length of Visible Light 11h 24m
Length of Day
10h 33m
Waxing Gibbous, 91% of the Moon is Illuminated
Nov 14
Waxing Gibbous
Nov 17
Full
Nov 25
Last Quarter
Dec 2
New
Dec 9
First Quarter

Hourly Weather History & Observations

Time (EST) Temp. Windchill Dew Point Humidity Pressure Visibility Wind Dir Wind Speed Gust Speed Precip Events Conditions
12:15 AM 35.4 °F 29.7 °F 25.3 °F 67% 30.48 in 10.0 mi East 6.9 mph - N/A   Clear
12:35 AM 35.8 °F 30.9 °F 25.3 °F 66% 30.47 in 10.0 mi East 5.8 mph - N/A   Clear
12:55 AM 35.6 °F 30.7 °F 25.3 °F 66% 30.47 in 10.0 mi East 5.8 mph - N/A   Clear
1:15 AM 35.2 °F 31.2 °F 25.5 °F 68% 30.47 in 10.0 mi East 4.6 mph - N/A   Clear
1:35 AM 35.1 °F 31.0 °F 25.5 °F 68% 30.47 in 10.0 mi East 4.6 mph - N/A   Clear
1:55 AM 34.7 °F 31.8 °F 25.3 °F 69% 30.46 in 10.0 mi East 3.5 mph - N/A   Clear
2:15 AM 34.0 °F 31.0 °F 25.5 °F 71% 30.46 in 10.0 mi East 3.5 mph - N/A   Clear
2:35 AM 33.6 °F 30.6 °F 25.7 °F 73% 30.46 in 10.0 mi ENE 3.5 mph - N/A   Clear
2:55 AM 33.3 °F 30.2 °F 26.1 °F 75% 30.45 in 10.0 mi East 3.5 mph - N/A   Clear
3:15 AM 32.7 °F - 26.1 °F 76% 30.45 in 10.0 mi Calm Calm - N/A   Clear
3:35 AM 32.7 °F 29.6 °F 25.9 °F 76% 30.45 in 10.0 mi ENE 3.5 mph - N/A   Clear
3:55 AM 32.9 °F 27.5 °F 26.1 °F 76% 30.44 in 10.0 mi NE 5.8 mph - N/A   Clear
4:15 AM 32.7 °F 29.6 °F 26.2 °F 77% 30.44 in 10.0 mi ENE 3.5 mph - N/A   Clear
4:35 AM 32.4 °F 27.9 °F 26.4 °F 79% 30.44 in 10.0 mi ENE 4.6 mph - N/A   Clear
4:55 AM 32.4 °F 29.1 °F 26.6 °F 79% 30.44 in 10.0 mi NE 3.5 mph - N/A   Clear
5:15 AM 32.0 °F 28.7 °F 26.8 °F 81% 30.44 in 10.0 mi NE 3.5 mph - N/A   Clear
5:35 AM 32.0 °F 28.7 °F 26.8 °F 81% 30.44 in 10.0 mi NE 3.5 mph - N/A   Clear
5:55 AM 32.0 °F 28.7 °F 26.6 °F 80% 30.44 in 10.0 mi NE 3.5 mph - N/A   Clear
6:15 AM 32.0 °F 27.5 °F 26.6 °F 80% 30.44 in 10.0 mi NE 4.6 mph - N/A   Clear
6:35 AM 32.0 °F 28.7 °F 26.6 °F 80% 30.45 in 10.0 mi NE 3.5 mph - N/A   Clear
6:55 AM 32.0 °F 28.7 °F 26.4 °F 80% 30.45 in 10.0 mi NNE 3.5 mph - N/A   Clear
7:15 AM 32.0 °F 28.7 °F 26.6 °F 80% 30.45 in 10.0 mi NE 3.5 mph - N/A   Clear
7:35 AM 32.4 °F 29.1 °F 26.8 °F 80% 30.45 in 10.0 mi NE 3.5 mph - N/A   Clear
7:55 AM 34.0 °F 31.0 °F 27.5 °F 77% 30.46 in 10.0 mi NNE 3.5 mph - N/A   Clear
8:15 AM 35.8 °F 30.9 °F 27.7 °F 72% 30.47 in 10.0 mi ENE 5.8 mph - N/A   Clear
8:35 AM 37.4 °F 32.1 °F 27.9 °F 68% 30.47 in 10.0 mi ENE 6.9 mph - N/A   Clear
8:55 AM 39.6 °F 34.7 °F 27.9 °F 63% 30.47 in 10.0 mi ENE 6.9 mph - N/A   Clear
9:15 AM 41.2 °F 35.5 °F 27.3 °F 58% 30.47 in 10.0 mi ENE 9.2 mph - N/A   Clear
9:35 AM 43.3 °F 39.2 °F 27.9 °F 54% 30.47 in 10.0 mi NE 6.9 mph - N/A   Clear
9:55 AM 45.3 °F 42.3 °F 29.7 °F 54% 30.47 in 10.0 mi East 5.8 mph - N/A   Clear
10:15 AM 46.9 °F - 31.1 °F 54% 30.48 in 10.0 mi Calm Calm - N/A   Clear
10:35 AM 49.3 °F - 32.0 °F 51% 30.47 in 10.0 mi NNE 5.8 mph - N/A   Clear
10:55 AM 51.3 °F - 33.4 °F 51% 30.47 in 10.0 mi NNE 6.9 mph - N/A   Clear
11:15 AM 53.2 °F - 34.5 °F 49% 30.46 in 10.0 mi Calm Calm - N/A   Clear
11:35 AM 55.2 °F - 36.0 °F 48% 30.45 in 10.0 mi Calm Calm - N/A   Clear
11:55 AM 56.5 °F - 37.6 °F 49% 30.44 in 10.0 mi NE 5.8 mph - N/A   Clear
12:15 PM 57.7 °F - 38.7 °F 49% 30.43 in 10.0 mi East 3.5 mph - N/A   Clear
12:35 PM 58.6 °F - 39.7 °F 49% 30.41 in 10.0 mi ESE 4.6 mph - N/A   Clear
12:55 PM 59.5 °F - 40.6 °F 50% 30.40 in 10.0 mi ENE 4.6 mph - N/A   Clear
1:15 PM 60.3 °F - 41.2 °F 49% 30.39 in 10.0 mi NE 5.8 mph - N/A   Clear
1:35 PM 61.2 °F - 41.7 °F 49% 30.38 in 10.0 mi East 5.8 mph - N/A   Clear
1:55 PM 62.1 °F - 42.6 °F 49% 30.37 in 10.0 mi East 5.8 mph - N/A   Clear
2:15 PM 62.8 °F - 43.2 °F 49% 30.36 in 10.0 mi NE 5.8 mph - N/A   Clear
2:35 PM 63.1 °F - 43.7 °F 49% 30.35 in 10.0 mi East 5.8 mph - N/A   Clear
2:55 PM 63.5 °F - 44.4 °F 50% 30.34 in 10.0 mi Calm Calm - N/A   Clear
3:15 PM 63.9 °F - 44.1 °F 49% 30.33 in 10.0 mi NE 5.8 mph - N/A   Clear
3:35 PM 64.2 °F - 43.9 °F 48% 30.33 in 10.0 mi East 5.8 mph - N/A   Clear
3:55 PM 64.0 °F - 44.2 °F 49% 30.33 in 10.0 mi Calm Calm - N/A   Clear
4:15 PM 63.7 °F - 44.8 °F 50% 30.33 in 10.0 mi East 5.8 mph - N/A   Clear
4:35 PM 63.5 °F - 45.3 °F 52% 30.32 in 10.0 mi East 4.6 mph - N/A   Clear
4:55 PM 62.4 °F - 45.3 °F 54% 30.32 in 10.0 mi NE 3.5 mph - N/A   Clear
5:15 PM 60.6 °F - 46.2 °F 59% 30.32 in 10.0 mi Calm Calm - N/A   Clear
5:35 PM 57.0 °F - 47.1 °F 69% 30.32 in 10.0 mi ENE 3.5 mph - N/A   Clear
5:55 PM 55.0 °F - 47.3 °F 75% 30.32 in 10.0 mi ENE 3.5 mph - N/A   Clear
6:15 PM 53.2 °F - 47.7 °F 81% 30.32 in 10.0 mi ENE 3.5 mph - N/A   Clear
6:35 PM 53.8 °F - 46.9 °F 78% 30.32 in 10.0 mi ENE 3.5 mph - N/A   Clear
6:55 PM 54.3 °F - 46.4 °F 75% 30.32 in 10.0 mi East 3.5 mph - N/A   Clear
7:15 PM 54.0 °F - 46.0 °F 75% 30.32 in 10.0 mi ENE 4.6 mph - N/A   Clear
7:35 PM 53.8 °F - 45.7 °F 74% 30.31 in 10.0 mi ENE 4.6 mph - N/A   Clear
7:55 PM 53.2 °F - 45.7 °F 76% 30.30 in 10.0 mi East 4.6 mph - N/A   Clear
8:15 PM 53.4 °F - 45.7 °F 75% 30.32 in 10.0 mi East 3.5 mph - N/A   Clear
8:35 PM 51.8 °F - 45.7 °F 80% 30.31 in 10.0 mi East 3.5 mph - N/A   Clear
8:55 PM 50.7 °F - 45.7 °F 83% 30.32 in 10.0 mi East 3.5 mph - N/A   Clear
9:15 PM 50.5 °F - 45.7 °F 83% 30.32 in 10.0 mi ESE 3.5 mph - N/A   Clear
9:35 PM 50.5 °F - 46.0 °F 85% 30.31 in 10.0 mi East 4.6 mph - N/A   Clear
9:55 PM 51.8 °F - 46.4 °F 82% 30.31 in 10.0 mi East 5.8 mph - N/A   Clear
10:15 PM 52.0 °F - 46.6 °F 82% 30.31 in 10.0 mi East 3.5 mph - N/A   Clear
10:35 PM 52.0 °F - 46.8 °F 82% 30.31 in 10.0 mi East 3.5 mph - N/A   Clear
10:55 PM 51.3 °F - 46.6 °F 84% 30.31 in 10.0 mi East 4.6 mph - N/A   Clear
11:15 PM 50.9 °F - 46.8 °F 86% 30.30 in 10.0 mi East 4.6 mph - N/A   Clear
11:35 PM 50.7 °F - 46.9 °F 87% 30.29 in 10.0 mi East 5.8 mph - N/A   Clear
11:55 PM 50.2 °F - 46.9 °F 89% 30.29 in 10.0 mi East 4.6 mph - N/A   Clear